Location: Le Coin
(44.7280°N, 6.8708°E)
Time: 11:15:37
(UTC+00:00)

Daily predictions for brighter satellites

Satellite Brightness Start Highest point End
(mag) Time Altitude Azimuth Time Altitude Azimuth Time Altitude Azimuth
Cosmos 1992 Rocket 4.0 18:42:30 10° S 18:47:36 60° ESE 18:52:45 10° NNE
SL-08 R/B 4.2 18:43:38 10° N 18:48:16 56° WNW 18:52:57 10° SSW
CZ-4C R/B 4.4 18:44:00 10° NNW 18:48:56 21° NNE 18:54:39 10° ENE
Meteor 1-21 Rocket 4.4 18:45:10 10° N 18:51:10 90° ESE 18:57:04 10° S
Cosmos 2297 Rocket 3.9 18:50:05 10° N 18:53:56 18° NE 18:57:45 10° E
Cosmos 2369 Rocket 3.5 18:50:40 10° SW 18:56:07 46° WNW 19:01:33 10° NNE
BlueWalker 3 2.8 18:56:37 10° SSW 18:59:56 29° SE 19:03:18 10° ENE
Meteor 1-11 4.4 18:55:45 10° N 19:01:22 60° ENE 19:07:01 10° SSE
ATLAS 5 CENTAUR R/B 1.0 19:01:00 10° SW 19:04:18 84° NW 19:07:57 10° NE
Cosmos 2098 Rocket 3.0 19:02:08 10° S 19:06:59 65° E 19:10:56 10° NNE
PSLV R/B 4.0 19:03:28 10° SSE 19:07:02 48° ENE 19:10:41 10° N
CARTOSAT-1 3.9 19:03:40 10° SE 19:07:44 45° ENE 19:11:50 10° N
Cosmos 1455 3.5 19:05:56 10° SSW 19:09:18 41° WNW 19:12:42 10° N
Cosmos 2366 rocket 4.4 19:04:16 10° NNW 19:10:37 71° W 19:16:55 10° S
Resurs 1-3 4.2 19:06:54 10° S 19:11:11 58° W 19:15:29 10° NNW
Okean-O 3.5 19:11:08 11° SE 19:14:51 31° ENE 19:18:45 10° N
Cosmos 1975 Rocket 3.2 19:12:27 10° NNW 19:16:47 75° W 19:21:03 10° S
CZ-4B R/B 3.3 19:11:11 10° SSE 19:16:50 86° WSW 19:22:26 10° NNW
Nadezhda 3 Rocket 4.1 19:15:16 10° SSE 19:21:13 56° E 19:27:15 10° NNE
CZ-4C R/B 3.9 19:19:37 10° NE 19:22:33 26° E 19:24:53 13° SSE
USA 186 2.0 19:20:27 10° S 19:23:27 65° WSW 19:26:27 10° NNW
Cosmos 1821 Rocket 3.9 19:18:11 10° N 19:24:23 85° E 19:30:29 10° S
Genesis I 4.3 19:21:33 10° NNW 19:24:45 28° NE 19:26:55 16° E
SL-27 R/B 2.3 19:22:09 10° NNW 19:25:02 64° WSW 19:27:51 10° S
SPOT 1/Viking Rocket 4.1 19:20:19 10° S 19:25:28 62° W 19:30:39 10° NNW
BREEZE-M R/B 3.2 19:23:25 10° WNW 19:25:49 30° N 19:27:40 13° ENE
USA 267 3.8 19:21:06 10° NE 19:27:33 63° NNW 19:33:59 10° WSW
Okean O Rocket 1.5 19:25:11 10° SSE 19:29:32 85° ENE 19:33:56 10° NNW
Feng Yun 1-1 Rocket 4.4 19:24:54 10° S 19:30:25 78° WSW 19:36:09 10° NNW
CZ-4 R/B 3.1 19:31:11 10° SSW 19:34:43 32° W 19:38:13 10° NNW
Cosmos 1486 Rocket 4.0 19:30:52 10° NNW 19:36:06 90° NNE 19:40:55 12° SSE
Atlas Centaur 2 3.6 19:34:00 10° SSW 19:36:13 13° S 19:37:20 12° SSE
Cosmos 1536 Rocket 3.7 19:38:32 10° N 19:42:53 55° ENE 19:45:49 20° SSE
SJ 16-02 4.0 19:40:57 10° NW 19:43:54 18° W 19:46:50 10° SW
Resurs 01 Rocket 2.0 19:39:56 10° S 19:44:18 65° WSW 19:48:43 10° NNW
MOS 1 4.4 19:43:34 17° SSE 19:47:58 61° ENE 19:53:36 10° N
CENTAUR R/B 4.4 19:43:37 10° NNW 19:50:17 29° NNE 19:57:39 10° E
NOSS 3-1 (A) 3.2 19:45:52 10° SW 19:50:45 77° NW 19:56:40 10° NE
ERS-1 Rocket 3.8 19:51:26 23° ESE 19:53:34 33° ENE 19:58:01 10° N
Tiangong -1.1 19:54:57 10° SW 19:57:17 29° S 19:57:17 29° S
USA 229 DEB 3.6 19:53:49 10° S 19:59:35 48° ESE 20:05:54 10° NE
USA 229 3.6 19:53:55 10° S 19:59:42 48° ESE 20:05:59 10° NE
Cosmos 1339 Rocket 4.4 19:55:25 10° S 20:01:31 71° E 20:07:34 10° NNE
Cosmos 2151 Rocket 3.6 19:57:08 10° S 20:01:31 85° W 20:05:59 10° N
Cosmos 1934 Rocket 3.9 19:55:42 10° N 20:01:52 72° E 20:06:25 20° SSE
USA 234 3.5 19:58:35 20° SSE 20:03:11 63° SW 20:09:41 10° NW
USA 281 3.2 19:59:02 18° SSE 20:04:13 84° WSW 20:10:50 10° NNW
ATLAS CENTAUR R/B 3.3 20:06:31 10° N 20:08:51 15° NE 20:09:58 14° ENE
Cosmos 2227 Rocket 3.2 20:05:04 10° N 20:10:10 33° NE 20:12:21 25° E
Cosmos 1980 Rocket 4.3 20:13:32 11° ENE 20:13:32 11° ENE 20:13:49 10° ENE
Iridium 2 2.9 20:11:06 10° N 20:14:04 83° W 20:14:16 74° SSW
SL-4 R/B 2.9 20:13:34 10° NW 20:16:53 33° NNE 20:17:57 27° NE
Landsat 4 3.5 20:17:01 57° ESE 20:17:20 60° ENE 20:20:49 10° N
Cosmos 1892 Rocket 4.2 20:13:48 10° N 20:17:49 36° ENE 20:18:09 35° E
MetOp-B 4.1 20:15:37 28° SSE 20:18:34 85° ENE 20:23:57 10° NNW
Cosmos 371 Rocket 3.6 20:13:53 10° NNW 20:18:37 63° WSW 20:21:07 27° S
Cosmos 1697 Rocket 3.2 20:18:57 34° ESE 20:19:26 35° ESE 20:24:32 10° NE
Cosmos 2360 4.4 20:17:18 23° S 20:20:31 49° ESE 20:25:59 10° NE
Cosmos 304 Rocket 3.9 20:17:43 10° NNW 20:22:29 72° WSW 20:24:31 34° S
Cosmos 1777 Rocket 4.2 20:17:50 10° NNW 20:23:06 71° WSW 20:25:46 29° S
Okean 2 Rocket 3.8 20:19:14 10° SSW 20:23:38 54° WNW 20:28:04 10° N
ATLAS 3B R/B 3.6 20:17:50 10° WSW 20:24:48 54° NW 20:32:16 10° NNE
COSMOS 2455 3.0 20:19:43 10° NNW 20:25:42 60° NE 20:27:59 37° ESE
Alouette 2 Rocket 4.3 20:18:32 10° NNW 20:25:47 82° W 20:28:14 31° S
SPOT 5 3.1 20:26:04 30° S 20:28:45 82° WSW 20:34:02 10° NNW
SWARM A 4.3 20:27:15 10° N 20:30:50 88° WSW 20:31:01 79° S
IRS-1A Rocket 4.3 20:28:48 31° SSE 20:31:49 88° WSW 20:37:43 10° NNW
Cosmos 405 Rocket 3.4 20:33:26 39° NE 20:33:26 39° NE 20:36:07 10° NNE
Spot 2 Rocket 3.5 20:36:25 49° ESE 20:37:31 62° ENE 20:42:30 10° N
BlueWalker 3 2.7 20:34:19 10° WSW 20:38:02 50° NNW 20:40:36 18° NE
Cosmos 2297 Rocket 2.1 20:33:04 10° NNW 20:38:46 88° WSW 20:40:35 45° SSE
CZ-4C R/B 3.3 20:31:53 10° NNW 20:38:52 57° NE 20:42:37 33° ESE
Terra 1.7 20:40:08 58° SE 20:40:57 73° ENE 20:45:40 10° N
Cosmos 1656 4.0 20:37:04 10° SW 20:42:37 65° WNW 20:48:07 10° NNE
Cosmos 1455 Rocket 3.0 20:46:46 68° E 20:46:46 68° E 20:51:02 10° NNE
Okean 1 Rocket 3.9 20:44:00 19° SSW 20:46:59 49° WNW 20:51:21 10° N
Iridium 4 Rocket 4.1 20:44:01 21° SSW 20:47:47 62° W 20:53:34 10° N
USA 245 3.9 20:46:54 48° S 20:48:19 79° WSW 20:52:49 10° NNW
ATLAS 5 CENTAUR R/B 4.5 20:47:23 10° NW 20:48:58 12° NNW 20:50:39 10° N
Spot 1 4.4 20:45:05 10° NNE 20:49:02 51° ENE 20:49:02 51° ENE
Cosmos 332 Rocket 3.7 20:46:19 10° NNW 20:51:11 84° WSW 20:51:54 65° S
Okean-O 4.4 20:48:36 16° SW 20:51:14 27° W 20:54:59 10° NW
Cosmos 2219 3.8 20:48:21 10° NNW 20:53:40 40° NE 20:54:33 37° ENE
Ariane Rocket 2.9 20:56:30 63° S 20:57:20 87° WSW 21:02:25 10° NNW
Cosmos 1763 Rocket 3.4 20:57:45 42° SSW 20:59:30 83° WNW 21:04:40 10° NNE
Cosmos 1437 Rocket 3.1 20:57:02 10° N 21:00:22 63° NNW 21:00:22 63° NNW
Cosmos 44 4.1 20:59:22 10° SW 21:04:42 58° NW 21:09:58 10° NNE
Cosmos 2263 Rocket 3.1 21:00:24 10° N 21:05:28 34° NE 21:06:06 33° ENE
ARGOS Delta rocket 4.0 21:08:36 72° SSE 21:09:09 84° ENE 21:14:39 10° N
Cosmos 990 Rocket 4.0 21:06:17 10° NNW 21:11:27 70° WSW 21:11:52 66° SW
Cosmos 2082 4.5 21:06:46 10° NNW 21:12:00 37° NE 21:12:29 36° ENE
Cosmos 2173 Rocket 4.1 21:10:08 10° N 21:16:27 59° ENE 21:17:01 57° ESE
Cosmos 540 Rocket 3.5 21:18:44 69° WSW 21:19:15 77° WNW 21:24:23 10° NNE
Meteor 2-3 Rocket 4.2 21:14:22 10° N 21:19:41 46° ENE 21:19:41 46° ENE
MOS 1 Rocket 3.6 21:25:22 58° NNW 21:25:22 58° NNW 21:28:56 10° NNW
Cosmos 2058 3.9 21:23:37 10° NNW 21:26:27 43° NNW 21:26:27 43° NNW
Cosmos 1626 Rocket 4.4 21:25:54 10° N 21:29:06 45° NNE 21:29:06 45° NNE
Cosmos 468 Rocket 4.3 21:31:31 59° WSW 21:32:07 64° WNW 21:37:20 10° NNE
ERS-1 Rocket 4.2 21:31:22 30° WSW 21:32:17 32° W 21:36:47 10° NNW
Cosmos 372 Rocket 4.1 21:27:22 10° NNW 21:32:09 67° NNE 21:32:09 67° NNE
SPOT 3 Rocket 4.2 21:35:46 44° WSW 21:36:11 44° W 21:41:10 10° NNW
Cosmos 1802 Rocket 4.0 21:32:41 10° N 21:38:57 65° E 21:38:59 65° E
Cosmos 841 Rocket 4.2 21:43:35 45° NNE 21:43:35 45° NNE 21:47:10 10° NNE
CENTAUR R/B 3.3 21:34:05 10° NW 21:42:23 73° NE 21:44:48 53° ESE
Cosmos 2016 Rocket 4.1 21:40:09 10° N 21:45:55 60° ENE 21:45:55 60° ENE
ATLAS CENTAUR R/B 3.2 21:43:13 10° NW 21:45:04 27° NW 21:45:04 27° NW
Cosmos 1727 Rocket 4.5 21:49:08 44° SW 21:50:43 55° WNW 21:56:52 10° N
Cosmos 2100 Rocket 4.0 21:47:35 10° NNW 21:53:55 72° W 21:54:16 70° WSW
Cosmos 1980 Rocket 2.4 21:55:13 63° NNE 21:55:13 63° NNE 21:59:57 10° NNE
Cosmos 2227 Rocket 3.0 21:48:59 10° NW 21:54:10 42° WSW 21:54:10 42° WSW
Cosmos 1697 Rocket 3.9 22:00:32 24° WSW 22:03:19 39° NW 22:08:38 10° NNE
Cosmos 1937 Rocket 4.1 21:59:29 10° NNW 22:03:47 55° NW 22:03:47 55° NW
Cosmos 2123 Rocket 3.9 22:05:46 83° N 22:05:46 83° N 22:11:52 10° N
COSMOS 2455 4.3 22:06:23 10° NW 22:11:08 25° WSW 22:11:08 25° WSW
ARIANE 5 R/B 4.1 22:17:17 35° NNW 22:17:17 35° NNW 22:19:57 10° NNW
Terra 4.3 22:18:50 13° W 22:19:04 13° W 22:21:15 10° WNW
Cosmos 2297 Rocket 4.5 22:19:29 10° WNW 22:21:54 13° W 22:22:24 13° WSW
Cosmos 2369 4.2 22:27:50 56° NNW 22:27:50 56° NNW 22:32:35 10° NNE
CZ-4C R/B 3.6 22:20:26 10° NW 22:27:28 44° WSW 22:27:43 44° WSW
Lacrosse 4 Rocket 4.3 22:33:41 11° NNE 22:33:41 11° NNE 22:33:51 10° NNE
NOSS 3-2 (C) 4.3 22:25:47 10° NNW 22:33:06 60° NE 22:34:32 53° E
Cosmos 1725 Rocket 4.4 22:29:41 10° NNW 22:35:10 56° WNW 22:35:10 56° WNW
Cosmos 2233 Rocket 4.2 22:30:01 10° N 22:35:19 67° NNW 22:35:19 67° NNW
Cosmos 2061 Rocket 4.3 22:36:17 10° NNW 22:42:00 64° NW 22:42:00 64° NW
Cosmos 2360 Rocket 4.1 22:51:06 19° ENE 22:51:06 19° ENE 22:53:04 10° NE
Cosmos 2263 Rocket 3.5 22:44:14 10° NW 22:47:47 32° WNW 22:47:47 32° WNW
Cosmos 2333 Rocket 4.0 23:03:48 21° ENE 23:03:48 21° ENE 23:06:00 10° NE
Cosmos 2322 Rocket 3.7 23:03:59 29° NE 23:03:59 29° NE 23:06:48 10° NE
Lacrosse 5 4.3 23:05:56 14° NE 23:05:56 14° NE 23:06:42 10° NE
Cosmos 2219 Rocket 4.4 23:05:42 14° ENE 23:05:42 14° ENE 23:06:56 10° NE
NOSS 3-2 (A) 4.3 23:00:32 10° NW 23:07:20 57° W 23:07:20 57° W
SL-16 R/B 3.1 23:22:57 45° N 23:22:57 45° N 23:26:53 10° NNE
CENTAUR R/B 4.2 23:25:20 10° NW 23:31:56 34° W 23:31:56 34° W
USA 238 DEB 3.9 23:25:31 10° NW 23:32:54 76° NE 23:32:58 76° NE
USA 238 3.9 23:25:36 10° NW 23:32:59 75° NE 23:33:05 75° ENE
Cosmos 1844 Rocket 3.8 23:28:37 10° NNW 23:32:09 40° NNW 23:32:09 40° NNW
Cosmos 1980 Rocket 4.4 23:36:55 14° WNW 23:39:07 17° NW 23:42:50 10° N
Timation 2 Rocket 4.4 23:43:00 10° NNW 23:48:19 60° NNW 23:48:19 60° NNW
